Tracking 30922 objects as of 2-Jul-2025
HD Live streaming from Space Station
objects crossing your sky now

ARIANE 44LP DEB

Track ARIANE 44LP DEB now!


NORAD ID: 33543
Int'l Code: 1988-109S
Perigee: 607.4 km
Apogee: 35,548.1 km
Inclination: 6.6 °
Period: 634.1 minutes
Semi major axis: 24448 km
RCS: 0.5686 m2 (medium)
Launch date: December 11, 1988
Source: France (FR)
Launch site: FRENCH GUIANA (FRGUI)

Note: This is SATELLITE DEBRIS
Your satellite tracking list
Your tracking list is empty




NASA's NSSDC Master Catalog

Two Line Element Set (TLE):
1 33543U 88109S   25176.51183008 -.00000127  00000-0 -50321-4 0  9998
2 33543   6.6419 187.3462 7145690 154.2006 340.4527  2.27100024187691
Source of the keplerian elements: AFSPC